• In Russia
  • List of Countries
  • For 7 days
  • Water Temperature
  • Weather Map
  • Weather Widgets
  • user-avatar
    Login

    Hourly Weather Razgrad

    Today, 24 August, Saturday

    Time Temperature Precipitation Wind Pressure Humidity
    00:00 +24°C° 0 mm 1 mps 745 mmHg 59%
    01:00 +23°C° 0 mm 1 mps 745 mmHg 62%
    02:00 +23°C° 0 mm 1 mps 745 mmHg 65%
    03:00 +22°C° 0 mm 1 mps 745 mmHg 68%
    04:00 +22°C° 0 mm 1 mps 745 mmHg 70%
    05:00 +21°C° 0 mm 1 mps 745 mmHg 72%
    06:00 +23°C° 0 mm 1 mps 745 mmHg 65%
    07:00 +25°C° 0 mm 2 mps 745 mmHg 58%
    08:00 +27°C° 0 mm 2 mps 746 mmHg 51%
    09:00 +29°C° 0 mm 3 mps 746 mmHg 45%
    10:00 +33°C° 0 mm 4 mps 746 mmHg 39%
    11:00 +35°C° 0 mm 4 mps 746 mmHg 33%
    12:00 +35°C° 0 mm 4 mps 745 mmHg 30%
    13:00 +36°C° 0 mm 5 mps 745 mmHg 28%
    14:00 +37°C° 0 mm 5 mps 745 mmHg 25%
    15:00 +37°C° 0 mm 5 mps 744 mmHg 25%
    16:00 +36°C° 0 mm 4 mps 744 mmHg 25%
    17:00 +36°C° 0 mm 4 mps 744 mmHg 25%
    18:00 +34°C° 0 mm 4 mps 744 mmHg 33%
    19:00 +30°C° 0 mm 3 mps 744 mmHg 40%
    20:00 +27°C° 0 mm 3 mps 744 mmHg 48%
    21:00 +26°C° 0 mm 2 mps 744 mmHg 53%
    22:00 +25°C° 0 mm 2 mps 744 mmHg 59%
    23:00 +24°C° 0 mm 1 mps 744 mmHg 64%

    Tomorrow, 25 August, Sunday

    Time Temperature Precipitation Wind Pressure Humidity
    00:00 +23°C° 0 mm 1 mps 744 mmHg 65%
    01:00 +23°C° 0 mm 1 mps 744 mmHg 66%
    02:00 +23°C° 0 mm 1 mps 744 mmHg 67%
    03:00 +22°C° 0 mm 1 mps 743 mmHg 69%
    04:00 +21°C° 0 mm 1 mps 743 mmHg 70%
    05:00 +21°C° 0 mm 1 mps 743 mmHg 72%
    06:00 +23°C° 0 mm 2 mps 743 mmHg 64%
    07:00 +25°C° 0 mm 2 mps 744 mmHg 57%
    08:00 +28°C° 0 mm 3 mps 744 mmHg 49%
    09:00 +30°C° 0 mm 3 mps 744 mmHg 43%
    10:00 +33°C° 0 mm 4 mps 744 mmHg 37%
    11:00 +36°C° 0 mm 5 mps 744 mmHg 31%
    12:00 +36°C° 0 mm 5 mps 744 mmHg 29%
    13:00 +37°C° 0 mm 5 mps 743 mmHg 27%
    14:00 +37°C° 0 mm 4 mps 743 mmHg 25%
    15:00 +36°C° 0 mm 4 mps 743 mmHg 27%
    16:00 +35°C° 0 mm 4 mps 743 mmHg 29%
    17:00 +34°C° 0 mm 4 mps 742 mmHg 31%
    18:00 +33°C° 0 mm 4 mps 743 mmHg 37%
    19:00 +30°C° 0 mm 4 mps 743 mmHg 44%
    20:00 +28°C° 0 mm 4 mps 743 mmHg 50%
    21:00 +26°C° 0 mm 4 mps 743 mmHg 58%
    22:00 +25°C° 0 mm 3 mps 744 mmHg 67%
    23:00 +22°C° 0 mm 3 mps 744 mmHg 75%

    Day after tomorrow, 26 August, Monday

    Time Temperature Precipitation Wind Pressure Humidity
    00:00 +21°C° 0 mm 2 mps 744 mmHg 78%
    01:00 +21°C° 0 mm 2 mps 743 mmHg 81%
    02:00 +20°C° 0 mm 2 mps 743 mmHg 84%
    03:00 +20°C° 0 mm 2 mps 743 mmHg 84%
    04:00 +21°C° 0 mm 1 mps 743 mmHg 85%
    05:00 +21°C° 0 mm 1 mps 744 mmHg 85%
    06:00 +23°C° 0 mm 2 mps 744 mmHg 76%
    07:00 +25°C° 0 mm 2 mps 744 mmHg 67%
    08:00 +27°C° 0 mm 2 mps 744 mmHg 58%
    09:00 +29°C° 0 mm 3 mps 744 mmHg 49%
    10:00 +33°C° 0 mm 4 mps 744 mmHg 40%
    11:00 +35°C° 0 mm 5 mps 744 mmHg 31%
    12:00 +35°C° 0 mm 5 mps 744 mmHg 31%
    13:00 +35°C° 0 mm 5 mps 744 mmHg 30%
    14:00 +35°C° 0 mm 4 mps 744 mmHg 30%
    15:00 +34°C° 0 mm 4 mps 743 mmHg 30%
    16:00 +34°C° 0 mm 4 mps 743 mmHg 30%
    17:00 +34°C° 0 mm 4 mps 743 mmHg 30%
    18:00 +32°C° 0 mm 4 mps 743 mmHg 36%
    19:00 +29°C° 0 mm 3 mps 743 mmHg 41%
    20:00 +27°C° 0 mm 3 mps 743 mmHg 47%
    21:00 +25°C° 0 mm 3 mps 744 mmHg 55%
    22:00 +24°C° 0 mm 2 mps 744 mmHg 63%
    23:00 +21°C° 0 mm 2 mps 744 mmHg 71%

    27 August, Tuesday

    Time Temperature Precipitation Wind Pressure Humidity
    00:00 +21°C° 0 mm 1 mps 744 mmHg 73%
    01:00 +21°C° 0 mm 1 mps 743 mmHg 75%
    02:00 +20°C° 0 mm 1 mps 743 mmHg 77%
    03:00 +20°C° 0 mm 1 mps 743 mmHg 79%
    04:00 +19°C° 0 mm 1 mps 743 mmHg 81%
    05:00 +19°C° 0 mm 1 mps 743 mmHg 83%
    06:00 +21°C° 0 mm 1 mps 744 mmHg 75%
    07:00 +23°C° 0 mm 2 mps 744 mmHg 67%
    08:00 +25°C° 0 mm 2 mps 744 mmHg 58%
    09:00 +27°C° 0 mm 2 mps 744 mmHg 50%
    10:00 +30°C° 0 mm 3 mps 744 mmHg 42%
    11:00 +33°C° 0 mm 3 mps 744 mmHg 34%
    12:00 +34°C° 0 mm 3 mps 744 mmHg 30%
    13:00 +35°C° 0 mm 3 mps 744 mmHg 27%
    14:00 +36°C° 0 mm 3 mps 743 mmHg 23%
    15:00 +35°C° 0 mm 3 mps 743 mmHg 24%
    16:00 +35°C° 0 mm 3 mps 743 mmHg 24%
    17:00 +35°C° 0 mm 3 mps 743 mmHg 25%
    18:00 +31°C° 0 mm 3 mps 743 mmHg 32%
    19:00 +28°C° 0 mm 4 mps 743 mmHg 40%
    20:00 +26°C° 0 mm 4 mps 743 mmHg 48%
    21:00 +24°C° 0 mm 3 mps 743 mmHg 55%
    22:00 +22°C° 0 mm 3 mps 744 mmHg 62%
    23:00 +20°C° 0 mm 2 mps 744 mmHg 69%

    28 August, Wednesday

    Time Temperature Precipitation Wind Pressure Humidity
    00:00 +20°C° 0 mm 2 mps 744 mmHg 72%
    01:00 +20°C° 0 mm 1 mps 744 mmHg 75%
    02:00 +19°C° 0 mm 1 mps 744 mmHg 78%
    03:00 +19°C° 0 mm 1 mps 744 mmHg 78%
    04:00 +19°C° 0 mm 1 mps 744 mmHg 78%
    05:00 +18°C° 0 mm 1 mps 744 mmHg 78%
    06:00 +19°C° 0 mm 2 mps 744 mmHg 68%
    07:00 +21°C° 0 mm 2 mps 744 mmHg 59%
    08:00 +25°C° 0 mm 2 mps 745 mmHg 50%
    09:00 +27°C° 0 mm 3 mps 745 mmHg 41%
    10:00 +30°C° 0 mm 4 mps 745 mmHg 32%
    11:00 +33°C° 0 mm 5 mps 745 mmHg 23%
    12:00 +34°C° 0 mm 5 mps 744 mmHg 21%
    13:00 +35°C° 0 mm 5 mps 744 mmHg 19%
    14:00 +36°C° 0 mm 5 mps 744 mmHg 16%
    15:00 +35°C° 0 mm 5 mps 743 mmHg 17%
    16:00 +35°C° 0 mm 5 mps 743 mmHg 18%
    17:00 +34°C° 0 mm 5 mps 743 mmHg 19%
    18:00 +30°C° 0 mm 5 mps 743 mmHg 27%
    19:00 +27°C° 0 mm 4 mps 743 mmHg 36%
    20:00 +22°C° 0 mm 4 mps 743 mmHg 44%
    21:00 +21°C° 0 mm 3 mps 743 mmHg 50%
    22:00 +20°C° 0 mm 2 mps 743 mmHg 57%
    23:00 +18°C° 0 mm 2 mps 743 mmHg 64%

    29 August, Thursday

    Time Temperature Precipitation Wind Pressure Humidity
    00:00 +19°C° 0 mm 1 mps 743 mmHg 64%
    01:00 +18°C° 0 mm 1 mps 743 mmHg 65%
    02:00 +16°C° 0 mm 1 mps 743 mmHg 66%
    03:00 +16°C° 0 mm 1 mps 743 mmHg 67%
    04:00 +15°C° 0 mm 1 mps 743 mmHg 69%
    05:00 +15°C° 0 mm 1 mps 743 mmHg 70%
    06:00 +18°C° 0 mm 1 mps 743 mmHg 61%
    07:00 +21°C° 0 mm 1 mps 743 mmHg 53%
    08:00 +23°C° 0 mm 1 mps 743 mmHg 44%
    09:00 +26°C° 0 mm 2 mps 743 mmHg 38%
    10:00 +28°C° 0 mm 3 mps 743 mmHg 31%
    11:00 +30°C° 0 mm 4 mps 743 mmHg 24%
    12:00 +32°C° 0 mm 4 mps 743 mmHg 23%
    13:00 +33°C° 0 mm 3 mps 742 mmHg 21%
    14:00 +34°C° 0 mm 3 mps 742 mmHg 20%
    15:00 +34°C° 0 mm 4 mps 742 mmHg 21%
    16:00 +34°C° 0 mm 4 mps 742 mmHg 22%
    17:00 +34°C° 0 mm 4 mps 741 mmHg 24%
    18:00 +30°C° 0 mm 4 mps 741 mmHg 33%
    19:00 +27°C° 0 mm 4 mps 741 mmHg 42%
    20:00 +23°C° 0 mm 4 mps 742 mmHg 51%
    21:00 +21°C° 0 mm 3 mps 742 mmHg 56%
    22:00 +20°C° 0 mm 3 mps 742 mmHg 62%
    23:00 +19°C° 0 mm 2 mps 742 mmHg 67%
    Show more